Regional Weather Roundup
Issued by NWS Upton, NY

Current Version | Previous Version | Graphics & Text | Print | Product List | Glossary Off
Versions: 1 2 3 4 5 6 7 8 9 10 11 12 13 14 15 16 17 18 19 20 21 22 23 24 25 26 27 28 29 30 31 32 33 34 35 36 37 38 39 40 41 42 43 44 45 46 47 48 49 50

000
ASUS41 KOKX 240505
RWROKX
REGIONAL WEATHER ROUNDUP
NATIONAL WEATHER SERVICE NEW YORK NY
100 AM EDT THU JUL 24 2014

NOTE: "FAIR" INDICATES FEW OR NO CLOUDS BELOW 12,000 FEET WITH NO
SIGNIFICANT WEATHER AND/OR OBSTRUCTIONS TO VISIBILITY.

NYZ071-072-176-178-NJZ106-104-240600-
NEW YORK CITY METRO AREA


CITY           SKY/WX    TMP DP  RH WIND       PRES   REMARKS
CENTRAL PARK   CLOUDY    75  69  81 VRB3      29.83F
LAGUARDIA APRT CLOUDY    77  68  73 NW8       29.78F
KENNEDY INTL   LGT RAIN  77  72  84 NW6       29.80S
NEWARK/LIBERTY CLOUDY    76  71  85 NW9       29.80F
BRNX BOT. GARD   N/A     75  68  78 N2        29.80F
TETERBORO      DRIZZLE   78  67  68 NW10      29.79F
$$

NYZ177-179-078>081-240600-
LONG ISLAND NEW YORK

CITY           SKY/WX    TMP DP  RH WIND       PRES   REMARKS
FARMINGDALE    CLOUDY    76  70  82 N5        29.78F
ISLIP          CLOUDY    76  70  82 CALM      29.76F
SHIRLEY        CLOUDY    74  70  87 CALM      29.79F
WESTHAMPTON    CLOUDY    73  70  90 SW5       29.80F
MONTAUK POINT    N/A     71  68  90 CALM      29.80F
$$

NYZ052-065-067-240600-
HUDSON VALLEY

CITY           SKY/WX    TMP DP  RH WIND       PRES   REMARKS
WHITE PLAINS   CLOUDY    73  69  87 NW8       29.81S
NEWBURGH       CLOUDY    72  72 100 CALM      29.84F
MONTGOMERY     CLOUDY    71  68  90 NW5       29.83F
POUGHKEEPSIE   LGT RAIN  72  70  93 CALM      29.80F
ALBANY         CLOUDY    70  67  90 N3        29.85S
$$

NJZ001-105-106-008-010-013-015-019>022-104-240600-
NEW JERSEY

CITY           SKY/WX    TMP DP  RH WIND       PRES   REMARKS
NEWARK/LIBERTY CLOUDY    76  71  85 NW9       29.80F
TETERBORO      DRIZZLE   78  67  68 NW10      29.79F
CALDWELL       CLOUDY    74  67  78 NW3       29.82S
MORRISTOWN     MOCLDY    75  68  78 N3        29.82S
SOMERVILLE     MOCLDY    73  68  84 N6        29.82R
LINDEN         FAIR      76  73  88 NW5       29.83R
SUSSEX         MOCLDY    73  65  75 NW6       29.85F
ANDOVER          N/A     71  65  81 N7        29.86S
TRENTON        MOCLDY    72  70  93 SW5       29.84R
MILLVILLE      CLOUDY    72  70  93 CALM      29.85F
ATLANTIC CITY  CLOUDY    74  69  85 SW8       29.85R
WRIGHTSTOWN    MOCLDY    73  71  94 W9        29.82F
TOMS RIVER     MOCLDY    73  68  83 CALM      29.83F
BELMAR         MOCLDY    73  66  78 W7        29.82F
$$

PAZ047>061-062-071-240600-
EASTERN PENNSYLVANIA

CITY           SKY/WX    TMP DP  RH WIND       PRES   REMARKS
PHILADELPHIA   CLOUDY    74  67  78 CALM      29.85R
ALLENTOWN      CLEAR     69  65  86 CALM      29.87S
SCRANTON       CLOUDY    70  62  76 NW9       29.91S
$$

CTZ002-004>006-009-010-012-RIZ004-006-007-MAZ004-011-015-240600-
SOUTHERN NEW ENGLAND
 IN CT

CITY           SKY/WX    TMP DP  RH WIND       PRES   REMARKS
BRADLEY INTL   CLOUDY    72  69  90 W3        29.77F
HARTFORD       MOCLDY    72  69  90 CALM      29.78S
DANBURY        LGT RAIN  70  67  90 CALM      29.82F
WTRBRY/OXFORD  CLOUDY    68  64  88 N5        29.83F
BRIDGEPORT     CLOUDY    74  70  87 N6        29.78F
MERIDEN        CLOUDY    70  68  93 CALM      29.80F FOG
NEW HAVEN      CLOUDY    73  69  87 CALM      29.79S
CHESTER        FAIR      70  70 100 NW3       29.81F
GROTON         CLOUDY    70  68  93 W5        29.77F
WILLIMANTIC    CLOUDY    72  69  90 CALM      29.79R

 IN RI

CITY           SKY/WX    TMP DP  RH WIND       PRES   REMARKS
PROVIDENCE     CLOUDY    72  66  81 SW8       29.77F
BLOCK ISLAND   MOCLDY    70  66  88 SW10      29.78F
WESTERLY       CLOUDY    72  68  87 SW5       29.79S

 IN MA

CITY           SKY/WX    TMP DP  RH WIND       PRES   REMARKS
BOSTON         CLOUDY    73  66  78 N5        29.75F
WORCESTER      CLOUDY    69  67  93 W7        29.80F
WESTFIELD      CLOUDY    72  68  87 CALM      29.78F
PROVINCETOWN   CLOUDY    70  68  94 SW7       29.77F
NANTUCKET      FOG       68  67  96 SW6       29.80F VSB 1/2
$$

ANZ330-335-338-340-345-350-353-355-240600-
COASTAL MARINE OBSERVATIONS


STATION/POSITION TIME  SKY/WX   TEMP    WIND        PRES    VSBY  WAVE
                                AIR SEA DIR/SP/G                  HT/PER
                 (UTC)          (F)     (DEG/KT/KT) (MB)    (MI)  (FT/S)
NY HARB ENTRANCE NOT AVBL
4S FIRE IS       NOT AVBL
23SW MTP         0500            72 70              1008.7          3/ 5
HUDSON CANYON    0500            74 74  220/ 12/ 14 1009.1          2/ 4
EXECUTION ROCKS  0500            75 72  360/  6/  6   N/A
WESTERN LI SOUND 0400            75     300/  2/  4   N/A           0
CENTRAL LI SOUND 0400            73 73  280/  4/  6   N/A           2/ 3
EASTERN LI SOUND 0400            69 66  240/  8/ 12   N/A
ROBBINS REEF     0400            76     320/  9/ 11   N/A
$$


>>>>>>>>>>>>>>>>>>>>>>>>>>>> KEY <<<<<<<<<<<<<<<<<<<<<<<<<<<
>                                                          <
>     SKY/WX - SKY CONDITION/PRESENT WEATHER               <
>     TMP    - TEMPERATURE IN FAHRENHEIT                   <
>     DP     - DEWPOINT IN FAHRENHEIT                      <
>     RH     - RELATIVE HUMIDITY IN PERCENT                <
>     WIND   - DIRECTION AND SPEED IN MPH                  <
>     PRES   - MEAN SEA LEVEL PRESSURE IN INCHES OF HG     <
>     WCI    - WIND CHILL INDEX                            <
>     VSB    - VISIBILITY IN MILES                         <
>     HX     - HEAT INDEX                                  <
>     TC     - TEMPERATURE IN CELSIUS                      <
>     VRB    - VARIABLE WIND DIRECTION                     <
>                                                          <
>>>>>>>>>>>>>>>>>>>>>>>>>>>> KEY <<<<<<<<<<<<<<<<<<<<<<<<<<<





USA.gov is the U.S. government's official web portal to all federal, state and local government web resources and services.